Regional Weather Roundup
Issued by NWS

Home | Current Version | Previous Version | Text Only | Print | Product List | Glossary Off
Versions: 1 2 3 4 5 6 7 8 9 10 11 12 13 14 15 16 17 18 19 20 21 22 23 24 25 26 27 28 29 30 31 32 33 34 35 36 37 38 39 40 41 42 43 44 45 46 47 48 49 50

000
ASUS43 KBIS 201202
RWRND

NORTH DAKOTA REGIONAL WEATHER ROUNDUP
NATIONAL WEATHER SERVICE BISMARCK ND
600 AM CST MON NOV 20 2017

NOTE: "FAIR" INDICATES FEW OR NO CLOUDS BELOW 12,000 FEET WITH NO
SIGNIFICANT WEATHER AND/OR OBSTRUCTIONS TO VISIBILITY.


NDZ001>003-009>011-017-201300-
NORTHWEST NORTH DAKOTA

CITY           SKY/WX    TMP DP  RH WIND       PRES   REMARKS
WILLISTON      CLOUDY    33  23  66 SW9       29.39F
6HR MIN TEMP:  25; 6HR MAX TEMP:  33;

MINOT          CLOUDY    42  22  44 SW16      29.36F
$$

NDZ018>021-031>035-040>046-201300-
SOUTHWEST NORTH DAKOTA

CITY           SKY/WX    TMP DP  RH WIND       PRES   REMARKS
BISMARCK       CLOUDY    31  22  69 SE3       29.48F
6HR MIN TEMP:  26; 6HR MAX TEMP:  31;

DICKINSON      CLOUDY    38  19  46 W12       29.45S
GARRISON         N/A     35  25  66 W10       29.41F
6HR MIN TEMP:  29; 6HR MAX TEMP:  35;

HETTINGER ARPT CLOUDY    29  17  61 W9        29.53S
$$

NDZ004>008-012>016-024-026-027-054-201300-
NORTHEAST NORTH DAKOTA

CITY           SKY/WX    TMP DP  RH WIND       PRES   REMARKS
GRAND FORKS    CLOUDY    30  25  81 S14       29.44F WCI  19
GRND FRKS AFB  CLEAR     31  24  77 SW8       29.42F
DEVILS LAKE    CLOUDY    32  26  78 S7        29.40F
$$

NDZ022-023-025-028>030-036>039-047>053-201300-
SOUTHEAST NORTH DAKOTA

CITY           SKY/WX    TMP DP  RH WIND       PRES   REMARKS
FARGO          CLOUDY    31  23  72 S13       29.51F
6HR MIN TEMP:  21; 6HR MAX TEMP:  32;

JAMESTOWN      CLOUDY    26  21  81 S6        29.45F WCI  19
$$





USA.gov is the U.S. government's official web portal to all federal, state and local government web resources and services.